Location: Newark
(54.4000°N, 32.4500°E)
Time: 05:19:57
(UTC+00:00)

ISS - Pass Details

Date: 26 January 2020
Orbit: 415 x 422 km, 51.6° (Epoch: 22 February)

Event Time Altitude Azimuth Distance (km) Brightness Sun altitude
Rises 17:25:56 0° 260° (W) 2,378 1.2 -27.2°
Reaches altitude 10° 17:28:04 10° 255° (WSW) 1,512 -0.1 -27.5°
Enters shadow 17:29:15 20° 249° (WSW) 1,053 -1.1 -27.7°
